Regional Weather Roundup
Issued by NWS

Home | Current Version | Previous Version | Text Only | Print | Product List | Glossary Off
Versions: 1 2 3 4 5 6 7 8 9 10 11 12 13 14 15 16 17 18 19 20 21 22 23 24 25 26 27 28 29 30 31 32 33 34 35 36 37 38 39 40 41 42 43 44 45 46 47 48 49 50

000
ASUS43 KDMX 030807
RWRIA

WEATHER ROUNDUP FOR IOWA
NATIONAL WEATHER SERVICE DES MOINES IA
200 AM CST TUE MAR 03 2015

NOTE: "FAIR" INDICATES FEW OR NO CLOUDS BELOW 12,000 FEET WITH NO
SIGNIFICANT WEATHER AND/OR OBSTRUCTIONS TO VISIBILITY.

* - THESE STATIONS ARE NOT NWS STATIONS...THUS NOT UNDER NWS
QUALITY CONTROL.  THEY ALSO DO NOT REPORT WEATHER SUCH
AS PRECIPITATION OR FOG.

IAZ001>003-012>014-020>022-031>034-043>046-030900-
   NORTHWEST IOWA

CITY           SKY/WX    TMP DP  RH WIND       PRES   REMARKS
CARROLL *      CLOUDY    27  23  86 SE12      29.84F WCI  16
CHEROKEE *     CLOUDY    27  23  86 S3        29.82F
DENISON *      CLOUDY    28  23  80 S10       29.79F WCI  19
LE MARS *      CLOUDY    27  21  80 SE8G15    29.80F WCI  18
ORANGE CITY *  PTCLDY    27  21  80 CALM      29.79F
SHELDON *      CLOUDY    25  21  86 S12       29.79F WCI  14
SIOUX CITY     CLOUDY    31  20  63 SE12      29.79F WCI  22
STORM LAKE *   CLOUDY    25  21  86 SE17      29.82F WCI  11
$$

IAZ055>058-069>071-079>083-090>094-030900-
   SOUTHWEST IOWA

CITY           SKY/WX    TMP DP  RH WIND       PRES   REMARKS
ATLANTIC *     CLOUDY    30  21  69 S12G17    29.82F WCI  21
AUDUBON *      PTCLDY    28  21  74 S9        29.84F WCI  20
CLARINDA *     CLOUDY    32  25  74 S10G17    29.86F WCI  24
COUNCIL BLFS * CLOUDY    30  23  74 S14       29.79F WCI  20
CRESTON *      CLOUDY    30  23  74 S15       29.85F WCI  19
HARLAN  *      CLOUDY    30  25  80 S13       29.83F WCI  20
LAMONI         CLOUDY    30  23  75 S14G21    29.90F WCI  19
RED OAK *      CLOUDY    32  23  69 S15       29.83F WCI  22
SHENANDOAH *   CLOUDY    32  25  74 S14       29.83F WCI  22
$$

IAZ047>049-059>061-072>074-084-030900-
   CENTRAL IOWA

CITY           SKY/WX    TMP DP  RH WIND       PRES   REMARKS
AMES           CLOUDY    26  19  74 SE12      29.90F WCI  16
ANKENY *       CLOUDY    28  21  74 SE14      29.90F WCI  17
CHARITON *     LGT RAIN  30  23  74 SE10G17   29.91F WCI  21
DES MOINES     CLOUDY    30  21  69 SE14      29.91F WCI  19
GRINNELL*      CLOUDY    27  21  80 SE15      29.94F WCI  15
KNOXVILLE *    CLOUDY    30  19  64 SE13      29.91F WCI  20
MARSHALLTOWN   CLOUDY    25  19  78 SE16      29.92F WCI  12
PELLA *        CLOUDY    30  23  74 SE13      29.96F WCI  20
PERRY *          N/A     28  23  80 SE13      29.87F WCI  18
$$

IAZ004>006-015-016-023>025-035-036-030900-
   NORTH CENTRAL IOWA

CITY           SKY/WX    TMP DP  RH WIND       PRES   REMARKS
ALGONA *       CLOUDY    25  19  80 SE15G21   29.86F WCI  12
CLARION *      CLOUDY    25  21  86 SE17G23   29.89F WCI  11
ESTHERVILLE    CLOUDY    22  19  89 SE14      29.83F WCI   9
FORT DODGE *   CLOUDY    27  18  69 SE8       29.88F WCI  18
MASON CITY     CLOUDY    23  17  78 SE14      29.92F WCI  11
FOREST CITY *  CLOUDY    25  18  74 SE12G17   29.89F WCI  14
IOWA FALLS *   CLOUDY    25  19  80 SE10      29.91F WCI  15
$$

IAZ007>011-017>019-026>030-037>042-050>054-066-030900-
   NORTHEAST IOWA

CITY           SKY/WX    TMP DP  RH WIND       PRES   REMARKS
CEDAR RAPIDS   CLOUDY    26  19  74 SE14G22   29.98F WCI  14
CHARLES CITY * CLOUDY    25  19  80 SE14      29.95F WCI  13
CLINTON *      CLOUDY    25  19  80 SE14      30.08F WCI  13
DECORAH *      CLOUDY    23  18  80 SE9       29.98F WCI  13
DUBUQUE        CLOUDY    24  18  77 SE14      30.02F WCI  12
MONTICELLO *   CLOUDY    25  21  86 SE13      30.01F WCI  13
OELWEIN *      CLOUDY    25  19  80 SE16      29.96F WCI  12
WATERLOO       CLOUDY    25  19  78 SE10      29.97F WCI  15
$$

IAZ064-065-067-068-078-030900-
   EAST CENTRAL IOWA

CITY           SKY/WX    TMP DP  RH WIND       PRES   REMARKS
DAVENPORT      CLOUDY    26  17  68 SE14      30.05F WCI  14
IOWA CITY      MIX PCPN  27  21  78 SE14      30.03F WCI  16
MT. PLEASANT * MIX PCPN  28  23  80 SE14      30.03R WCI  17
MUSCATINE *    CLOUDY    28  21  74 S12       30.06F WCI  18
QUAD CITIES    CLOUDY    27  19  72 SE7       30.06F WCI  19
$$

IAZ062-063-075>077-085>089-095>099-030900-
   SOUTHEAST IOWA

CITY           SKY/WX    TMP DP  RH WIND       PRES   REMARKS
BURLINGTON     FRZ RAIN  28  22  78 SE12      30.04F WCI  18
FAIRFIELD *    CLOUDY    28  23  80 SE14      30.00F WCI  17
FORT MADISON * MIX PCPN  28  23  80 S8        30.05R WCI  20
KEOKUK *       LGT RAIN  30  23  74 SE6       30.04R WCI  24
OSKALOOSA *    MIX PCPN  28  23  80 SE14      29.97F WCI  17
CENTERVILLE *  CLOUDY    28  23  80 SE10      29.95F WCI  19
OTTUMWA        MIX PCPN  28  21  75 SE15      29.96F WCI  16
WASHINGTON *   MIX PCPN  28  27  93 SE17      30.01F WCI  16
$$

ABBREVIATIONS USED IN REMARKS
   TC - TEMPERATURES IN CELSIUS
  WCI - WIND CHILL INDEX
   HX - HEAT INDEX
  VSB - VISIBILITY
$$




USA.gov is the U.S. government's official web portal to all federal, state and local government web resources and services.